Weather History for Cherry Point, NC

Change the Weather History Date:

Friday, December 7, 2012

  Actual Average Record
Temperature  
Mean Temperature 48 °F -  
Max Temperature 64 °F 58 °F 78 °F (1998)
Min Temperature 32 °F 39 °F 23 °F (2010)
Degree Days  
Heating Degree Days 17    
Moisture  
Dew Point 54 °F    
Average Humidity 87    
Maximum Humidity 100    
Minimum Humidity 72    
Precipitation  
Precipitation 0.19 in - - ()
Sea Level Pressure  
Sea Level Pressure 30.07 in    
Wind  
Wind Speed 6 mph ()    
Max Wind Speed 12 mph    
Max Gust Speed -    
Visibility 7.9 miles    
Events Rain    
Averages and records for this station are not official NWS values.
T = Trace of Precipitation, MM = Missing Value Source: Averaged Metar Reports

Daily Weather History Graph

Daily Weather History Graph

Search for Another Location

Airport:

Trip Planner

Search our weather history database for the weather conditions in past years. The results will help you decide how hot, cold, wet, or windy it might be!

Date:

Astronomy

Dec. 07, 2012 Rise Set
Actual Time 7:02 AM EST 4:56 PM EST
Civil Twilight 6:34 AM EST 5:23 PM EST
Nautical Twilight 6:02 AM EST 5:55 PM EST
Astronomical Twilight 5:32 AM EST 6:26 PM EST
Moon 12:32 AM EST (12/7) 12:40 PM EST (12/7)
Length of Visible Light 10h 49m
Length of Day
9h 53m
Last Quarter, 39% of the Moon is Illuminated
Dec 7
Last Quarter
Dec 13
New
Dec 20
First Quarter
Dec 28
Full
Jan 4
Last Quarter

Hourly Weather History & Observations

Time (EST) Temp. Dew Point Humidity Pressure Visibility Wind Dir Wind Speed Gust Speed Precip Events Conditions
12:54 AM 46.9 °F 42.1 °F 83% 30.17 in 10.0 mi NNE 8.1 mph - N/A   Mostly Cloudy
1:54 AM 48.0 °F 41.0 °F 77% 30.17 in 10.0 mi NNE 11.5 mph - N/A   Scattered Clouds
2:54 AM 48.0 °F 42.1 °F 80% 30.16 in 10.0 mi NNE 9.2 mph - N/A   Partly Cloudy
3:54 AM 48.9 °F 43.0 °F 80% 30.15 in 10.0 mi NE 8.1 mph - N/A   Mostly Cloudy
4:54 AM 48.9 °F 43.0 °F 80% 30.14 in 10.0 mi NE 8.1 mph - N/A   Mostly Cloudy
5:54 AM 50.0 °F 44.1 °F 80% 30.14 in 10.0 mi NE 5.8 mph - N/A   Mostly Cloudy
6:54 AM 50.0 °F 45.0 °F 83% 30.15 in 10.0 mi NE 5.8 mph - N/A   Mostly Cloudy
7:32 AM 51.8 °F 44.6 °F 76% 30.16 in 10.0 mi North 8.1 mph - N/A   Mostly Cloudy
7:54 AM 51.1 °F 46.0 °F 83% 30.16 in 10.0 mi ENE 5.8 mph - N/A   Overcast
8:17 AM 51.8 °F 46.4 °F 82% 30.16 in 10.0 mi ENE 6.9 mph - N/A   Overcast
8:54 AM 55.0 °F 48.0 °F 77% 30.15 in 10.0 mi ENE 8.1 mph - N/A   Overcast
9:04 AM 55.4 °F 48.2 °F 77% 30.16 in 10.0 mi ENE 6.9 mph - N/A   Overcast
9:54 AM 55.9 °F 50.0 °F 80% 30.16 in 10.0 mi ENE 9.2 mph - N/A   Overcast
10:54 AM 60.1 °F 51.1 °F 72% 30.13 in 10.0 mi ENE 10.4 mph - N/A   Mostly Cloudy
11:54 AM 61.0 °F 53.1 °F 75% 30.09 in 10.0 mi East 5.8 mph - N/A   Overcast
12:54 PM 64.0 °F 55.9 °F 75% 30.06 in 10.0 mi ENE 4.6 mph - N/A   Overcast
1:54 PM 63.0 °F 57.9 °F 84% 30.04 in 10.0 mi NE 3.5 mph - 0.00 in   Overcast
2:54 PM 63.0 °F 59.0 °F 87% 30.04 in 10.0 mi NE 6.9 mph - 0.00 in   Overcast
3:24 PM 62.6 °F 57.2 °F 82% 30.04 in 9.0 mi NE 5.8 mph - 0.01 in Rain Light Rain
3:54 PM 62.1 °F 59.0 °F 90% 30.04 in 8.0 mi NNE 4.6 mph - 0.01 in   Overcast
4:04 PM 62.6 °F 59.0 °F 88% 30.05 in 1.5 mi NE 6.9 mph - 0.09 in Rain Rain
4:14 PM 62.6 °F 59.0 °F 88% 30.05 in 2.5 mi Calm Calm - 0.10 in Rain Light Rain
4:17 PM 62.6 °F 59.0 °F 88% 30.04 in 3.0 mi North 3.5 mph - 0.10 in Rain Light Rain
4:33 PM 62.6 °F 59.0 °F 88% 30.04 in 4.0 mi NNE 5.8 mph - 0.11 in Rain Rain
4:54 PM 61.0 °F 59.0 °F 93% 30.04 in 6.0 mi NE 4.6 mph - 0.12 in Rain Light Rain
5:04 PM 60.8 °F 59.0 °F 94% 30.04 in 2.5 mi NE 4.6 mph - 0.02 in Rain Light Rain
5:11 PM 60.8 °F 59.0 °F 94% 30.04 in 3.0 mi NE 6.9 mph - 0.03 in Rain Light Rain
5:54 PM 62.1 °F 60.1 °F 93% 30.03 in 8.0 mi Calm Calm - 0.03 in   Overcast
6:18 PM 32.0 °F 32.0 °F 100% - 4.0 mi Calm Calm - N/A   Mostly Cloudy
6:26 PM - - N/A% - - North - - N/A   Unknown
6:54 PM 63.0 °F 61.0 °F 93% 30.02 in 4.0 mi SE 6.9 mph - 0.01 in Rain Light Rain
7:54 PM 63.0 °F 61.0 °F 93% 30.01 in 10.0 mi SSE 6.9 mph - 0.00 in   Overcast
8:01 PM 62.6 °F 60.8 °F 94% 30.02 in 9.0 mi SSE 5.8 mph - N/A   Overcast
8:54 PM 63.0 °F 61.0 °F 93% 30.02 in 8.0 mi SSE 6.9 mph - N/A   Overcast
9:54 PM 63.0 °F 61.0 °F 93% 30.00 in 10.0 mi SE 8.1 mph - 0.00 in   Overcast
9:56 PM 62.6 °F 60.8 °F 94% 30.01 in 10.0 mi SE 8.1 mph - N/A   Overcast
10:03 PM 62.6 °F 60.8 °F 94% 30.01 in 7.0 mi SSE 6.9 mph - 0.00 in Rain Light Rain
10:24 PM 62.6 °F 60.8 °F 94% 30.01 in 6.0 mi SE 4.6 mph - 0.00 in Rain Light Rain
10:54 PM 64.0 °F 62.1 °F 93% 30.00 in 4.0 mi SSE 4.6 mph - 0.01 in Rain Light Rain
11:10 PM 64.4 °F 62.6 °F 94% 30.01 in 5.0 mi SE 4.6 mph - 0.00 in Rain Light Rain
11:28 PM 62.6 °F 62.6 °F 100% 30.00 in 10.0 mi SE 5.8 mph - 0.00 in   Overcast
11:54 PM 63.0 °F 62.1 °F 97% 29.99 in 10.0 mi SSE 4.6 mph - 0.01 in   Overcast